[[{"header":{"parameterUnit":"m.s-1","parameterCategory":1,"la1":30.2991,"la2":30.254,"lo1":-89.0895,"lo2":-89.0444,"dy":0.0017,"dx":0.0017,"nx":28,"ny":28,"refTime":"2025-03-17T21:00:00:Z","depth":0,"parameterNumber":2,"parameterNumberName":"U-component_of_WINDS"},"data":[0,0,0,0,0,0,0,0,0,0,0,0,0,0,0,0,0,0,0,0,0,0,0,0,0,0,0,0,0,0,0,0,0,0,0,0,0,0,0,0,0,0,0,0,0,0,0,0,0,0,0,0,0,0,0,0,0,0,0.3318,0.3317,0,0.3205,0.3204,0.3203,0.3085,0.3083,0.3082,0.308,0.2966,0.2965,0.2963,0,0,0,0,0,0,0,0,0,0,0,0,0,0.3433,0.3432,0.3318,0.3317,0.3316,0.3205,0.3204,0.3202,0.3085,0.3083,0.3081,0.3079,0.2967,0.2965,0.2963,0,0,0,0,0,0,0,0,0,0,0,0,0,0.3358,0.3431,0.3319,0.3244,0.3236,0.3206,0.3204,0.3202,0.3086,0.3083,0.3081,0.3079,0.2967,0.2965,0.2963,0.2997,0,0,0.2956,0.2955,0,0,0,0,0,0,0,0,0.3363,0.3354,0.3256,0.3249,0.324,0.3157,0.3202,0.3133,0.3086,0.3143,0.308,0.3077,0.3032,0.3024,0.3008,0.2992,0.2987,0.2955,0.2954,0.2953,0.2952,0,0,0,0,0,0,0,0.3368,0.3358,0.3274,0.3255,0.3245,0.3216,0.3203,0.3189,0.3102,0.3138,0.3129,0.3117,0.3027,0.3011,0.3004,0.2985,0.2956,0.2954,0.2952,0.2951,0.2991,0.2993,0,0,0,0,0,0,0.3384,0.3363,0.3277,0.327,0.3297,0.3216,0.3201,0.3186,0.3102,0.3087,0.3119,0.3112,0.3016,0.3007,0.3,0.3035,0.2953,0.2951,0.295,0.2989,0.2992,0.2994,0,0,0,0,0,0,0.3387,0.3378,0.3282,0.3314,0.33,0.3217,0.3201,0.3185,0.3169,0.3088,0.3072,0.3119,0.3013,0.3003,0.2998,0.3029,0.295,0.2948,0.2986,0.299,0.2993,0.3105,0,0,0,0,0,0,0.3391,0.338,0.3392,0.3315,0.3299,0.3283,0.3202,0.3185,0.3165,0.3154,0.3083,0.3069,0.3011,0.3003,0.2996,0.3025,0.2946,0.2983,0.2987,0.2992,0.3098,0.3112,0.3124,0,0,0,0,0,0.3396,0.3429,0.3393,0.3384,0.3312,0.3285,0.3275,0.3206,0.3168,0.318,0.3127,0.3071,0.3027,0.3003,0.2995,0.3023,0.2981,0.2986,0.2991,0.3093,0.311,0.3124,0,0,0,0,0,0,0.3512,0.3417,0.3377,0.3386,0.3344,0.3265,0.3278,0.3226,0.3195,0.3187,0.3103,0.3088,0.3093,0.3057,0.3033,0.3052,0.2995,0.3,0.3075,0.3091,0.3103,0.3112,0.2944,0,0,0,0,0,0.3539,0.3524,0.3442,0.3458,0.3439,0.3362,0.3347,0.3298,0.3251,0.3233,0.3181,0.3138,0.3114,0.31,0.3073,0.3092,0.3075,0.3107,0.312,0.3131,0.3136,0.3143,0.3156,0.3012,0.3012,0.3012,0,0,0.3594,0.354,0.3536,0.348,0.3441,0.3428,0.3348,0.3337,0.3326,0.3231,0.3224,0.3184,0.313,0.3138,0.3138,0.3108,0.3171,0.3138,0.3147,0.3146,0.315,0.3163,0.3176,0.3016,0.3015,0.3015,0,0,0.3687,0.3645,0.3653,0.3616,0.3559,0.3507,0.351,0.3437,0.3407,0.3398,0.3326,0.3312,0.3272,0.3237,0.3214,0.3292,0.324,0.3286,0.3354,0.3361,0.3373,0.3382,0.3411,0.3422,0.3291,0.3291,0.3291,0,0.3763,0.374,0.3665,0.3658,0.3635,0.3547,0.3555,0.3523,0.346,0.3447,0.3413,0.3361,0.3319,0.3317,0.3336,0.332,0.332,0.3295,0.3377,0.3386,0.3394,0.342,0.3431,0.3297,0.3297,0.3296,0.3295,0,0.3836,0.3821,0.3834,0.3775,0.3754,0.3755,0.368,0.3667,0.3619,0.3571,0.3563,0.3509,0.3469,0.3465,0.3418,0.3455,0.3438,0.3392,0.3334,0.3415,0.3438,0.3447,0.3306,0.3304,0.3302,0.3301,0,0,0.4001,0.3899,0.3906,0.3877,0.3807,0.3794,0.379,0.3751,0.3742,0.3701,0.3696,0.3664,0.362,0.3594,0.3543,0.3549,0.3615,0.3502,0.3499,0.3525,0.3652,0.3689,0.3701,0.3579,0.358,0.3582,0.3657,0,0.4083,0.4071,0.4003,0.4011,0.3996,0.3912,0.3909,0.3865,0.382,0.38,0.375,0.3729,0.3673,0.3656,0.3659,0.3607,0.364,0.36,0.3574,0.3574,0.3591,0.3713,0.3751,0.3825,0.3666,0.3667,0.3668,0,0.4177,0.4142,0.4149,0.4077,0.4068,0.4067,0.4025,0.4007,0.3956,0.3922,0.3893,0.3834,0.3825,0.377,0.3757,0.3732,0.3717,0.3689,0.369,0.3686,0.3627,0.3713,0.3847,0.3859,0.3682,0.368,0.368,0,0.4298,0.4251,0.4249,0.4228,0.4144,0.4145,0.4111,0.4056,0.4037,0.4,0.3987,0.395,0.393,0.3903,0.3836,0.3802,0.3831,0.377,0.3803,0.3805,0.3814,0.3815,0.3949,0.3803,0.3803,0.3803,0.3803,0,0.4397,0.4405,0.4302,0.4301,0.4307,0.4228,0.4236,0.4193,0.4145,0.4134,0.4059,0.405,0.3962,0.3943,0.389,0.3888,0.3879,0.3852,0.3838,0.3859,0.3863,0.3849,0.3843,0.3806,0.3805,0.3804,0.3804,0,0.4533,0.4465,0.4457,0.4378,0.4359,0.4367,0.4299,0.4295,0.4244,0.4231,0.4223,0.4144,0.4118,0.4048,0.4004,0.3969,0.3981,0.3954,0.3999,0.399,0.4027,0.4025,0.4158,0.4171,0.4017,0.4019,0.402,0,0.4602,0.4605,0.4527,0.4514,0.4482,0.4462,0.4442,0.4363,0.4345,0.4286,0.4289,0.4257,0.4227,0.4189,0.4128,0.4093,0.4066,0.4115,0.406,0.4081,0.4067,0.4068,0.4068,0.4127,0.4129,0.4131,0.4132,0,0.473,0.4696,0.4669,0.4631,0.4608,0.4574,0.4536,0.4529,0.4441,0.4425,0.4396,0.4373,0.4328,0.4297,0.4252,0.4216,0.416,0.415,0.4155,0.4178,0.4204,0.4191,0.4032,0.4147,0.4146,0.4145,0.4144,0.4143,0.4834,0.4834,0.4778,0.4751,0.4713,0.4679,0.4671,0.4619,0.4594,0.4551,0.4506,0.4483,0.443,0.4365,0.4333,0.4313,0.4284,0.4293,0.4295,0.4298,0.4308,0.4206,0.4305,0.4304,0.4304,0.4303,0.4303,0,0.496,0.4919,0.4895,0.4843,0.4822,0.4769,0.4724,0.4709,0.469,0.4645,0.4617,0.4585,0.4554,0.449,0.4453,0.445,0.4423,0.4443,0.4443,0.4435,0.4336,0.4335,0.4465,0.4465,0.4465,0.4465,0.4465,0.4465,0.5022,0.5018,0.4977,0.4954,0.4913,0.489,0.4868,0.4836,0.48,0.4767,0.4741,0.4699,0.4646,0.4605,0.4574,0.4556,0.4546,0.4575,0.4549,0.4458,0.4442,0.4428,0.4426,0.4573,0.4573,0.4649,0.465,0.465]},{"header":{"parameterUnit":"m.s-1","parameterCategory":1,"la1":30.2991,"la2":30.254,"lo1":-89.0895,"lo2":-89.0444,"dy":0.0017,"dx":0.0017,"nx":28,"ny":28,"refTime":"2025-03-17T21:00:00:Z","depth":0,"parameterNumber":3,"parameterNumberName":"V-component_of_WINDS"},"data":[0,0,0,0,0,0,0,0,0,0,0,0,0,0,0,0,0,0,0,0,0,0,0,0,0,0,0,0,0,0,0,0,0,0,0,0,0,0,0,0,0,0,0,0,0,0,0,0,0,0,0,0,0,0,0,0,0,0,1.0515,1.0515,0,1.0546,1.0547,1.0547,1.056,1.056,1.056,1.056,1.0592,1.0592,1.0593,0,0,0,0,0,0,0,0,0,0,0,0,0,1.0466,1.0467,1.0515,1.0515,1.0516,1.0546,1.0547,1.0547,1.056,1.056,1.056,1.056,1.0591,1.0592,1.0593,0,0,0,0,0,0,0,0,0,0,0,0,0,1.0491,1.0467,1.0515,1.0526,1.0527,1.0546,1.0547,1.0547,1.056,1.056,1.056,1.056,1.0591,1.0592,1.0594,1.0604,0,0,1.0598,1.0598,0,0,0,0,0,0,0,0,1.049,1.0493,1.0524,1.0525,1.0527,1.0549,1.0541,1.0566,1.056,1.0548,1.056,1.056,1.0577,1.058,1.0586,1.0605,1.0606,1.0598,1.0599,1.0599,1.06,0,0,0,0,0,0,0,1.0488,1.0492,1.0527,1.0524,1.0526,1.0529,1.0533,1.0546,1.0563,1.0549,1.055,1.0553,1.0578,1.0585,1.0587,1.0607,1.0598,1.0599,1.06,1.06,1.0636,1.0636,0,0,0,0,0,0,1.0484,1.049,1.0526,1.0528,1.0508,1.053,1.0534,1.0542,1.0563,1.0566,1.0553,1.0554,1.0582,1.0585,1.0588,1.0601,1.0599,1.06,1.0601,1.0635,1.0636,1.0636,0,0,0,0,0,0,1.0483,1.0488,1.0525,1.051,1.0515,1.0531,1.054,1.0543,1.0549,1.0566,1.0569,1.0557,1.0582,1.0586,1.06,1.0602,1.0601,1.0602,1.0635,1.0635,1.0636,1.0627,0,0,0,0,0,0,1.0482,1.0487,1.0491,1.051,1.0515,1.0536,1.054,1.0543,1.0552,1.0552,1.057,1.0573,1.0583,1.0598,1.0601,1.0604,1.0603,1.0635,1.0635,1.0636,1.0627,1.0627,1.0627,0,0,0,0,0,1.048,1.0488,1.0491,1.0496,1.0521,1.0537,1.054,1.0551,1.0552,1.0556,1.0567,1.0572,1.0601,1.0599,1.0603,1.0606,1.0635,1.0635,1.0636,1.0628,1.0627,1.0627,0,0,0,0,0,0,1.0469,1.049,1.0495,1.0508,1.0521,1.0539,1.0544,1.055,1.0562,1.0563,1.0576,1.058,1.0592,1.0601,1.0597,1.0617,1.0619,1.062,1.0611,1.0611,1.0611,1.0609,1.0604,0,0,0,0,0,1.0469,1.048,1.0497,1.0508,1.0513,1.0528,1.0535,1.0543,1.0556,1.0561,1.0573,1.0585,1.0597,1.0604,1.0616,1.0629,1.0633,1.0633,1.0633,1.0633,1.0633,1.064,1.0641,1.0637,1.0637,1.0637,0,0,1.0467,1.048,1.0486,1.0506,1.0516,1.0527,1.0532,1.0544,1.0552,1.0563,1.0576,1.0585,1.06,1.0613,1.0619,1.062,1.0635,1.0633,1.0633,1.0634,1.0641,1.0641,1.0641,1.0637,1.0637,1.0637,0,0,1.047,1.0481,1.0491,1.0501,1.0516,1.0526,1.0528,1.0545,1.0552,1.0565,1.0574,1.0583,1.0604,1.0614,1.0621,1.0628,1.0633,1.0631,1.063,1.0637,1.0637,1.0637,1.0639,1.064,1.0632,1.0632,1.0632,0,1.0466,1.0483,1.0495,1.0506,1.0514,1.0524,1.0534,1.0543,1.0562,1.0567,1.0568,1.0594,1.0604,1.062,1.0621,1.0627,1.063,1.0629,1.0636,1.0636,1.0637,1.0639,1.064,1.0631,1.0631,1.0631,1.0632,0,1.0478,1.0489,1.0495,1.0513,1.0522,1.0532,1.0545,1.0553,1.0559,1.0568,1.0582,1.0595,1.061,1.0614,1.062,1.063,1.063,1.0633,1.0635,1.0637,1.0639,1.064,1.0631,1.0631,1.0631,1.0631,0,0,1.0475,1.0499,1.0501,1.0509,1.0526,1.0535,1.0546,1.056,1.0567,1.0579,1.0588,1.0605,1.0608,1.0616,1.0624,1.063,1.0634,1.0632,1.0633,1.0632,1.0645,1.0642,1.0643,1.0638,1.0638,1.0638,1.0644,0,1.048,1.05,1.051,1.0525,1.0536,1.0546,1.0555,1.0567,1.0575,1.0586,1.0595,1.0607,1.061,1.0615,1.0622,1.0632,1.0637,1.0632,1.0646,1.0646,1.0642,1.0644,1.0642,1.0647,1.0645,1.0645,1.0645,0,1.0489,1.0501,1.0517,1.0533,1.0538,1.0546,1.056,1.057,1.0583,1.0589,1.0599,1.0606,1.0618,1.0618,1.0634,1.0631,1.0637,1.0643,1.0643,1.0645,1.0646,1.0646,1.0649,1.0649,1.0646,1.0646,1.0646,0,1.0485,1.0505,1.0518,1.0524,1.0543,1.0549,1.0557,1.057,1.0578,1.059,1.0595,1.0609,1.0616,1.0626,1.0636,1.0636,1.0651,1.0653,1.0656,1.0656,1.0659,1.0658,1.0662,1.0663,1.0663,1.0663,1.0663,0,1.049,1.0499,1.0516,1.0524,1.0534,1.0546,1.0557,1.0566,1.0577,1.0587,1.0596,1.0604,1.0618,1.0628,1.0636,1.0648,1.0651,1.0656,1.0658,1.0655,1.0655,1.066,1.066,1.0663,1.0663,1.0663,1.0663,0,1.0488,1.0499,1.0513,1.053,1.0535,1.0542,1.0556,1.0564,1.0573,1.0585,1.0588,1.0602,1.0615,1.0626,1.0643,1.0648,1.066,1.0663,1.0655,1.0657,1.0659,1.0659,1.0666,1.0668,1.0667,1.0667,1.0667,0,1.049,1.0497,1.0515,1.0522,1.053,1.0541,1.0549,1.0561,1.0569,1.0584,1.059,1.0603,1.0614,1.0633,1.0645,1.0657,1.0661,1.0662,1.0663,1.0659,1.0661,1.066,1.0661,1.0662,1.0662,1.0662,1.0662,0,1.0493,1.0498,1.0509,1.0522,1.0531,1.0542,1.0554,1.0559,1.0573,1.0581,1.0594,1.0603,1.0619,1.0632,1.0646,1.0654,1.066,1.0662,1.0663,1.066,1.0656,1.0658,1.0655,1.0662,1.0662,1.0662,1.0662,1.0662,1.0493,1.05,1.0513,1.0525,1.0535,1.0545,1.0553,1.0563,1.0574,1.0588,1.0595,1.0608,1.062,1.064,1.0648,1.0658,1.0659,1.0661,1.0662,1.0662,1.0662,1.0654,1.0661,1.0661,1.0661,1.0661,1.0661,0,1.0496,1.0505,1.0516,1.0531,1.0541,1.0546,1.0558,1.0566,1.0577,1.0588,1.0599,1.0614,1.0626,1.0639,1.0652,1.0657,1.066,1.066,1.066,1.0662,1.066,1.0657,1.0657,1.0657,1.0657,1.0657,1.0657,1.0657,1.0498,1.051,1.0517,1.0534,1.0543,1.0556,1.0563,1.0572,1.0581,1.0597,1.0607,1.0615,1.0627,1.0641,1.0653,1.0656,1.066,1.0659,1.0664,1.0662,1.0662,1.0662,1.066,1.066,1.066,1.0665,1.0665,1.0665]}]]